Lapse_Rate
6.0 5.6 5.4 5.5 5.5 5.7 5.6 5.3 5.5 5.5 5.6 5.6 5.7 6.2 6.2 6.5 6.1 5.7 5.2 5.0 4.6 4.6 4.4 4.1 4.0 4.0 3.9 4.0 3.3 3.0 3.1 3.4 4.1 4.6 5.0 5.9 6.8 6.1 5.7 5.2 5.7 5.9 5.8 5.8 4.7
6.2 5.8 5.5 5.8 5.8 5.8 5.5 5.7 6.0 5.8 5.9 5.4 5.6 6.2 6.0 6.0 5.7 5.3 5.1 4.7 4.6 4.4 4.1 3.9 3.8 4.0 3.6 3.4 2.9 3.1 3.0 3.7 4.7 5.3 5.5 6.1 6.7 7.0 6.3 5.5 6.1 5.8 5.7 5.5 5.4
5.9 6.0 5.9 5.9 6.0 5.7 5.6 5.6 6.1 6.1 5.8 5.5 5.6 6.1 5.9 6.0 5.3 5.2 4.7 4.6 4.4 4.0 4.0 3.9 3.6 3.4 3.2 2.8 3.3 3.6 3.2 4.7 5.0 5.7 5.7 6.1 6.8 6.6 6.2 6.1 5.8 6.1 5.9 5.4 5.4
6.1 6.3 6.6 6.1 6.0 6.0 5.8 6.0 6.1 6.0 5.9 5.6 5.7 6.0 5.6 5.4 4.4 4.6 4.6 4.6 3.9 4.1 4.0 3.6 3.2 2.9 2.7 3.2 3.7 4.0 3.9 5.0 5.3 6.0 5.2 5.9 5.9 6.0 6.3 5.9 6.8 6.4 6.1 5.3 5.6
6.2 6.4 6.6 6.8 6.5 6.0 6.0 6.1 6.2 6.0 6.1 5.7 5.7 5.7 5.3 5.1 4.5 4.6 4.7 4.7 4.4 4.4 3.7 3.2 3.0 2.7 3.3 4.1 4.8 4.7 5.1 5.8 6.2 6.2 6.1 6.0 6.0 6.1 6.7 6.8 6.8 6.3 6.0 6.2 5.8
5.9 6.3 6.7 6.8 6.8 6.3 6.1 6.0 6.3 6.2 5.9 5.8 5.8 5.5 5.3 4.7 4.9 5.0 5.1 5.3 5.2 4.1 3.7 3.8 4.2 4.6 4.9 5.1 5.6 6.3 6.6 6.6 6.7 6.6 6.5 6.4 6.2 6.5 6.7 6.5 6.9 6.3 6.7 6.5 6.2
6.2 6.1 6.5 6.8 7.0 6.5 6.1 6.0 6.1 6.2 6.0 6.0 5.9 5.5 5.3 5.4 5.2 5.4 5.9 5.9 5.4 5.1 4.9 5.2 6.0 6.4 6.3 6.4 6.6 6.6 6.9 7.2 7.0 7.1 6.9 6.6 6.4 6.7 7.1 6.6 6.8 6.4 6.5 6.2 6.3
6.3 6.1 6.3 6.4 6.1 6.2 6.2 6.4 6.3 6.1 6.1 6.4 5.8 5.6 6.3 5.6 5.7 5.7 5.7 5.7 5.7 5.5 5.7 5.8 6.2 6.2 6.0 6.6 6.7 6.5 7.0 7.3 7.6 7.5 7.4 7.0 6.9 7.3 7.1 6.6 6.7 6.3 6.4 6.5 6.7
6.3 6.2 6.2 6.1 6.4 6.6 6.3 6.2 6.3 5.9 6.6 6.1 6.1 7.0 5.9 5.9 5.8 5.7 5.4 5.5 5.0 5.7 5.8 6.0 6.0 6.1 6.3 6.3 6.3 6.8 7.2 7.7 8.1 8.3 8.1 7.3 7.0 7.6 7.6 6.9 7.1 6.8 6.6 6.9 6.8
6.3 6.0 6.2 6.2 6.3 6.5 6.0 6.4 6.3 6.3 6.4 6.4 6.4 6.6 5.9 5.8 5.7 5.7 5.4 5.2 5.5 5.3 5.8 6.0 6.0 6.3 6.3 6.7 7.1 7.4 7.4 8.1 8.2 8.6 8.5 7.6 7.4 7.6 7.3 7.1 7.1 7.2 6.9 6.8 6.8
6.6 6.3 6.3 6.1 6.2 6.0 6.0 6.3 6.2 6.4 6.6 6.5 7.0 6.2 5.7 5.7 5.7 5.4 5.2 5.3 5.6 5.6 5.3 5.7 5.7 5.9 6.2 6.7 7.0 7.0 7.7 8.0 8.1 8.9 7.9 8.0 7.4 7.2 7.1 7.3 7.0 6.5 6.6 6.9 6.7
7.3 6.6 6.6 6.1 6.0 6.0 6.2 6.3 6.3 6.7 6.2 6.7 6.5 6.2 5.6 5.6 5.6 5.4 5.4 5.2 5.3 5.8 5.9 5.9 6.2 6.4 6.8 6.8 6.9 7.0 7.3 7.6 8.0 7.7 8.0 7.9 7.6 7.5 7.3 7.4 7.2 6.4 6.5 6.3 6.1
7.3 6.7 6.9 6.9 6.2 6.4 6.0 6.5 6.6 6.7 6.5 6.8 6.4 6.0 5.6 5.6 5.5 5.3 5.3 5.5 5.7 6.0 6.1 6.2 6.4 6.5 6.5 6.8 6.9 7.1 7.0 7.2 6.6 7.6 7.8 8.0 7.9 7.5 7.3 7.2 7.0 6.7 5.9 6.3 6.1
7.4 6.9 6.9 6.6 6.4 6.1 6.0 6.3 6.3 6.7 6.7 6.5 6.3 5.8 5.7 5.5 5.7 5.5 5.6 5.8 6.0 6.1 6.4 6.4 6.4 6.3 6.6 6.5 6.8 7.5 7.3 6.4 7.1 7.6 7.8 7.7 8.1 7.1 6.7 7.1 7.1 6.5 6.6 6.3 6.1
6.9 7.0 6.6 6.5 6.0 5.8 6.0 6.2 6.6 6.9 6.9 6.2 6.1 5.9 5.6 5.8 5.9 6.0 5.8 6.1 6.0 6.2 6.6 6.7 6.5 6.5 6.4 6.6 6.5 6.7 7.1 6.6 7.1 7.7 7.9 6.9 6.7 6.4 6.3 6.2 6.7 6.5 6.2 6.4 6.6
6.7 6.9 6.5 5.9 5.7 5.9 6.1 6.1 6.3 6.4 6.6 6.2 6.1 5.9 5.9 6.0 6.1 6.3 6.3 6.1 6.1 6.3 6.4 6.7 6.6 6.5 6.6 6.7 6.5 6.6 6.6 6.5 6.5 7.1 7.9 6.6 6.7 6.0 5.4 5.6 5.8 5.9 6.2 6.5 6.3
6.4 6.5 5.9 5.1 5.5 5.8 6.2 6.0 6.0 6.4 6.2 6.2 6.0 5.9 5.9 6.4 6.6 6.5 6.4 6.5 6.5 6.5 6.5 6.4 6.3 6.6 6.8 6.6 6.4 6.4 6.3 6.8 6.9 6.8 7.1 6.4 6.3 4.9 4.9 5.3 5.6 5.6 5.9 6.3 6.2
6.2 6.2 5.7 5.5 5.6 5.8 5.8 5.8 6.0 5.9 6.0 6.2 6.1 6.1 6.3 6.9 6.8 6.5 6.7 6.7 6.6 6.6 6.7 6.9 6.5 6.8 6.8 6.7 6.6 6.6 6.5 7.0 7.0 7.1 7.1 6.4 5.4 5.0 4.8 5.6 5.3 5.6 6.1 6.2 5.9
6.0 5.7 5.4 5.4 5.5 5.7 5.5 5.4 5.6 5.9 6.1 6.0 6.2 6.5 6.7 7.0 6.9 6.6 6.6 6.5 6.6 6.7 6.7 6.8 6.5 6.3 6.6 7.0 7.0 6.8 6.6 6.9 7.2 7.7 7.2 6.0 5.4 5.2 5.0 5.5 5.6 5.7 5.9 5.8 5.8
5.3 5.1 5.4 5.5 5.4 5.6 5.3 5.3 5.8 5.9 6.1 6.0 6.6 6.7 7.1 6.8 6.9 6.9 6.9 6.6 6.7 6.7 6.7 6.6 6.7 6.6 6.5 7.0 6.9 6.9 7.0 7.0 7.0 7.7 6.9 5.9 5.2 5.0 5.1 4.9 5.2 5.2 6.1 6.2 6.2
5.0 5.0 5.2 5.4 5.3 5.2 5.0 5.4 5.8 5.9 6.2 6.2 6.2 6.5 6.5 6.6 6.8 6.8 6.6 6.6 6.8 6.7 6.6 6.6 6.8 6.8 7.1 6.5 6.4 6.2 6.5 6.4 6.4 6.6 7.7 7.1 6.2 5.3 5.7 5.4 5.4 5.9 6.0 5.9 6.2
4.8 4.7 5.1 5.0 4.9 4.8 4.9 5.7 5.9 5.9 6.3 6.4 6.6 6.7 6.4 6.8 6.5 6.7 6.4 6.6 6.9 6.8 6.3 6.7 6.8 6.6 6.7 6.6 6.3 5.5 5.6 6.0 6.5 7.1 6.9 7.1 5.8 5.1 5.0 5.5 5.4 5.7 5.6 5.7 5.9
5.5 5.3 5.0 4.6 4.3 4.2 5.2 5.5 6.1 5.9 6.3 6.5 6.7 7.0 7.1 6.7 6.5 6.5 7.0 6.7 6.7 7.0 7.1 7.0 6.8 6.7 6.8 6.6 6.1 5.6 5.4 5.5 6.1 6.2 6.0 7.2 5.6 5.0 4.9 4.7 5.3 5.6 5.8 5.8 5.9
5.8 5.4 5.2 4.8 4.4 3.8 5.0 5.2 5.5 5.9 6.2 6.5 6.7 6.9 7.0 6.7 6.8 6.5 6.3 6.7 6.8 6.7 6.9 6.8 6.3 6.6 6.8 5.6 5.5 5.4 5.1 6.0 6.4 6.3 6.5 5.9 5.4 5.2 5.0 5.6 5.8 5.7 5.8 5.9 5.8
5.7 5.4 5.1 4.8 4.6 4.6 5.0 5.0 5.5 5.6 6.1 6.2 6.1 6.2 6.3 6.3 6.3 6.5 6.5 6.2 6.5 6.6 6.6 6.4 6.0 6.5 6.1 6.0 5.8 5.7 5.4 5.1 5.8 5.9 6.0 5.7 5.1 4.9 5.7 6.1 6.3 6.4 6.4 6.3 6.2
5.8 5.5 5.1 4.8 4.6 4.3 4.5 4.4 4.3 4.8 5.2 5.3 5.4 5.6 5.7 5.6 5.9 5.5 6.0 6.0 6.0 6.2 6.3 6.3 5.9 6.1 6.2 6.2 5.9 5.9 5.9 5.5 5.6 5.3 5.0 4.9 4.7 4.9 4.9 4.9 5.0 5.4 5.5 5.7 5.8
5.2 5.2 4.8 4.7 4.5 4.2 4.2 4.1 4.2 4.3 4.5 4.7 4.8 4.6 4.9 5.1 5.2 5.2 5.2 5.2 5.3 5.7 6.1 6.3 6.0 5.7 5.7 5.9 5.8 6.0 5.6 5.6 5.6 5.3 4.7 4.7 4.6 4.6 4.6 4.5 4.4 4.2 4.1 4.2 4.5
Wind_Speed
20 24 24 25 18 14 10 7 6 5 4 6 6 4 4 4 8 9 8 1 2 3 5 4 7 5 7 12 14 9 10 18 25 25 21 22 21 22 15 19 23 15 17 3 16
20 20 21 19 15 14 11 7 5 4 4 5 5 4 4 6 9 11 3 3 5 4 10 5 6 5 9 9 9 13 13 22 19 19 20 22 24 22 19 26 18 21 10 7 17
21 21 21 15 14 17 12 7 5 4 4 4 3 3 2 8 11 1 7 7 5 5 2 3 4 7 11 11 14 16 21 19 18 18 17 22 20 14 17 13 16 19 24 10 14
22 22 21 25 22 19 13 6 6 4 3 4 3 4 1 2 2 6 7 8 9 3 1 4 6 8 8 10 14 19 21 17 20 21 15 17 15 18 16 21 18 21 9 12 12
21 22 21 23 21 18 14 8 6 4 3 1 6 4 2 4 7 10 4 7 7 2 6 7 9 9 12 8 11 17 19 20 19 18 17 18 18 18 19 16 9 11 11 11 14
22 21 21 25 27 18 17 12 7 3 4 3 5 4 2 6 3 6 6 5 4 5 6 7 6 6 10 12 13 13 16 18 20 20 17 18 21 22 18 17 13 14 14 9 10
21 21 22 23 27 22 16 14 9 5 3 2 6 4 5 8 2 6 3 6 4 6 7 6 6 7 3 11 10 15 21 20 21 18 20 14 23 26 21 15 13 17 16 8 14
19 20 23 20 12 18 17 16 8 4 4 3 6 4 4 3 3 5 7 6 5 6 6 5 5 11 11 9 14 15 19 18 22 21 20 21 20 22 22 10 16 14 10 12 14
15 21 22 23 28 19 17 13 7 3 1 7 6 2 4 5 6 7 8 9 9 6 5 5 6 8 3 7 9 12 14 19 21 20 18 19 17 18 8 8 12 10 12 11 12
14 19 24 31 23 22 18 13 9 12 8 5 3 3 4 2 4 3 5 7 8 9 9 10 6 5 4 6 11 7 14 18 17 18 20 20 16 4 8 11 11 9 8 11 10
13 15 18 21 27 25 17 7 6 3 5 5 6 2 1 3 3 5 6 7 10 10 13 9 6 12 15 16 20 17 16 14 16 19 21 20 17 15 12 10 13 10 9 9 12
11 13 12 8 20 14 4 2 2 3 4 11 2 5 5 2 4 6 5 7 10 12 12 5 15 15 11 15 15 16 13 17 17 14 18 18 15 12 12 13 14 11 10 11 9
11 12 16 20 21 8 3 2 1 2 2 4 4 4 1 4 5 4 10 3 9 8 10 11 6 3 7 12 12 14 18 17 6 20 19 14 11 10 7 7 9 10 12 9 5
9 12 18 29 9 5 3 6 4 2 1 5 4 3 4 2 5 6 7 4 3 3 4 7 5 8 11 13 13 14 14 9 17 18 9 16 6 5 5 6 10 10 8 5 4
5 6 12 6 9 6 1 9 6 3 3 4 4 3 1 6 1 8 6 3 3 2 2 3 2 5 8 10 10 8 14 10 15 8 14 6 3 5 6 2 4 2 5 6 8
4 8 13 4 2 1 6 9 3 3 3 3 3 3 4 9 4 5 5 2 3 2 4 3 2 3 6 7 10 9 4 7 3 5 5 5 3 10 7 6 1 8 6 9 9
4 7 4 6 1 3 5 4 2 2 1 4 4 5 5 2 2 1 3 3 2 3 1 2 1 4 6 2 6 3 5 2 1 3 4 8 6 6 11 10 3 5 4 7 9
8 7 7 5 7 3 4 3 1 3 3 1 3 5 1 2 2 2 3 3 3 3 2 4 3 5 3 4 3 6 5 3 3 2 5 11 8 5 10 7 5 5 3 8 7
8 2 3 3 9 4 4 0 2 3 2 5 5 4 3 2 2 2 4 5 5 7 4 1 3 5 1 7 6 4 2 4 1 11 5 3 1 3 9 10 10 3 13 12 10
2 2 4 4 4 3 2 2 2 1 1 2 1 4 2 4 2 3 5 7 4 6 4 3 2 4 7 6 3 2 2 3 1 2 6 5 5 5 11 14 13 13 15 13 10
2 3 3 3 3 4 0 4 3 1 3 4 4 2 4 4 6 5 6 6 9 6 4 1 3 5 3 8 9 8 6 4 4 3 3 5 6 6 9 12 14 15 13 11 10
2 3 1 3 1 4 1 3 3 1 1 2 3 5 7 4 5 3 6 7 10 6 5 5 3 3 2 4 2 5 7 6 4 3 4 8 6 6 9 11 10 11 11 10 11
3 3 1 4 1 2 2 2 3 2 4 4 3 5 4 4 1 3 4 5 8 8 5 6 3 1 3 4 4 4 10 9 3 4 5 1 7 7 8 11 12 12 12 11 12
4 3 1 2 3 0 3 1 2 1 2 3 3 2 2 4 4 3 2 4 6 6 4 5 5 5 5 5 5 7 12 13 5 5 12 12 15 10 9 10 10 11 11 11 12
1 3 4 4 3 4 0 1 4 1 1 3 2 4 5 2 2 4 4 2 2 2 2 3 4 5 8 6 5 7 10 13 11 6 9 13 12 9 8 9 9 9 10 12 13
1 3 4 4 5 6 4 5 6 2 3 2 2 4 6 5 5 4 5 4 4 4 3 1 3 1 4 6 4 7 10 7 10 9 8 10 8 5 6 7 8 9 10 11 12
1 1 1 6 6 5 4 3 5 2 2 3 2 2 6 6 6 6 6 5 5 6 5 4 2 0 2 3 1 1 8 7 5 8 5 1 4 3 4 5 3 5 5 6 7
Wind_Direction
333 330 330 331 217 233 232 243 224 246 263 316 296 291 314 323 286 249 255 46 360 184 267 261 250 252 248 241 245 240 250 243 243 248 249 258 256 226 243 241 257 262 249 197 140
326 322 318 321 221 220 222 234 211 225 259 317 300 262 306 315 292 271 191 159 210 223 229 251 250 256 244 238 222 224 240 245 255 260 256 255 253 258 223 236 238 269 266 123 151
330 324 329 311 284 214 210 205 172 215 251 310 298 224 294 310 286 298 130 183 211 189 334 313 294 274 258 245 233 237 246 264 258 253 280 267 274 284 284 230 280 255 253 164 159
329 328 327 331 331 203 193 159 179 193 240 289 268 193 285 302 329 96 149 163 163 148 192 277 255 246 248 244 237 252 256 260 262 275 289 273 279 272 250 268 262 241 343 317 199
326 328 322 330 317 197 159 146 180 182 218 224 173 156 209 237 256 133 122 127 152 185 263 258 264 262 254 263 264 263 264 262 261 259 263 269 269 275 267 268 316 298 274 318 212
322 321 326 323 321 166 150 154 164 197 170 152 155 162 233 258 61 165 181 170 239 239 238 241 260 293 288 272 265 273 280 269 262 258 248 252 253 252 248 250 268 272 238 287 295
317 323 319 319 322 148 151 161 149 137 202 179 159 205 244 256 4 166 170 219 216 246 262 248 277 260 303 288 280 277 272 262 258 250 246 250 253 245 246 234 261 260 245 292 314
314 318 314 316 336 141 160 145 147 176 180 166 164 205 271 71 258 191 214 230 232 246 272 310 267 265 269 272 284 274 270 259 245 239 226 229 256 230 233 223 248 250 245 263 307
311 311 309 299 309 153 139 135 132 160 204 151 161 212 272 128 212 217 222 233 220 215 238 253 254 246 200 259 272 239 259 237 251 232 229 202 239 248 179 207 237 250 250 255 289
305 310 316 292 163 143 130 129 150 121 121 133 107 196 224 233 143 200 229 240 234 234 230 227 230 249 229 228 262 283 243 248 250 224 216 202 230 172 193 214 235 257 264 257 276
300 314 332 125 140 140 134 133 138 139 203 207 138 55 155 123 179 215 226 228 232 238 240 191 224 238 242 248 254 284 283 274 256 221 201 206 210 236 241 219 227 260 299 293 283
296 309 315 351 128 142 110 219 72 47 154 224 124 259 263 289 274 212 190 226 207 231 231 202 242 254 302 261 251 250 264 265 250 199 188 201 204 226 232 225 230 225 285 278 313
289 299 298 306 142 131 213 291 289 304 140 130 195 261 217 207 254 215 197 227 250 259 243 231 234 148 283 263 233 231 248 267 234 171 209 173 206 200 231 241 218 225 262 268 267
280 311 314 139 138 134 219 258 272 255 136 122 186 137 157 211 254 195 216 239 191 279 264 249 280 254 253 237 230 252 244 247 182 169 165 197 151 172 197 228 216 207 235 220 168
314 356 153 114 129 171 201 206 247 244 153 141 140 85 170 225 20 189 181 120 251 245 241 80 232 186 220 230 214 262 304 225 217 202 124 184 224 81 55 101 162 75 204 146 153
302 11 152 81 59 77 238 174 226 207 102 172 144 204 222 207 197 134 192 165 177 242 214 285 286 242 269 270 227 284 293 326 333 279 81 39 220 67 8 340 47 29 116 136 133
36 8 149 134 73 142 221 192 197 69 208 166 202 200 222 132 110 215 215 177 317 280 341 250 226 265 247 264 155 319 279 132 125 56 52 12 44 57 7 336 341 347 354 121 144
12 36 114 56 105 116 207 226 70 82 139 102 188 205 216 340 140 7 65 123 355 350 347 5 278 352 304 253 219 200 259 331 64 70 92 40 14 8 306 79 55 308 161 119 113
81 40 55 36 87 329 244 4 51 61 145 177 178 207 119 144 295 321 62 52 27 8 312 316 358 305 296 326 345 358 18 318 287 111 90 68 352 0 69 66 97 153 97 100 117
92 75 35 43 24 294 268 23 35 1 314 277 287 304 95 20 323 9 41 35 3 9 43 346 7 341 306 292 219 324 303 228 242 74 81 100 46 45 37 77 74 52 74 84 90
60 80 28 29 354 255 244 46 33 86 333 322 18 105 57 38 7 28 35 90 9 344 302 8 320 321 285 18 3 354 2 340 303 338 106 124 75 9 64 64 79 81 71 70 67
72 73 20 340 208 265 144 8 331 42 287 309 317 40 46 37 26 33 40 25 1 340 7 16 27 66 17 323 326 302 13 3 319 14 15 84 73 67 75 57 74 79 72 57 62
78 90 292 285 109 162 107 44 330 333 359 357 24 29 27 41 31 15 7 26 13 21 20 343 30 177 286 212 186 34 10 4 3 355 2 22 116 106 74 60 49 50 48 52 49
133 115 83 278 296 289 118 112 129 23 339 354 38 12 359 34 38 72 39 12 0 14 324 273 29 13 56 35 339 5 18 30 50 39 70 94 118 79 65 56 49 51 55 54 47
77 119 174 177 215 146 98 136 163 157 358 339 89 46 6 19 37 40 27 351 72 36 29 1 59 50 57 41 39 31 25 33 55 36 109 119 102 82 59 57 66 57 47 43 39
116 147 186 139 138 152 161 185 190 139 324 34 74 31 23 49 16 27 340 15 25 358 57 48 125 13 45 32 34 46 30 36 52 55 95 111 92 67 74 77 80 68 61 47 28
86 296 190 160 160 164 177 161 178 211 98 36 38 81 65 50 45 57 65 60 31 348 13 14 126 270 84 11 323 222 18 35 60 47 350 120 85 31 54 42 56 102 86 58 15